| time (UTC) | temp F | wind direction | speed MPH | gust MPH | rain 1hr in | rain 24hr in | rain mn in | humidity % | barometer mb |
| 20260502212530 | 52 | 0.0 | 0.0 | 0.00 | 0.00 | 0.00 | 62 | 1005.6 | |
| 20260502211550 | 52 | 0.0 | 0.0 | 0.00 | 0.00 | 0.00 | 59 | 1005.8 | |
| 20260502210532 | 53 | 0.0 | 0.0 | 0.00 | 0.00 | 0.00 | 58 | 1005.8 | |
| 20260502205531 | 53 | 0.0 | 0.0 | 0.00 | 0.00 | 0.00 | 56 | 1005.6 | |
| 20260502204530 | 54 | 0.0 | 4.0 | 0.00 | 0.00 | 0.00 | 56 | 1005.7 | |
| 20260502203530 | 54 | 293 | 1.0 | 4.0 | 0.00 | 0.00 | 0.00 | 53 | 1005.8 |
| 20260502202532 | 54 | 270 | 1.0 | 7.0 | 0.00 | 0.00 | 0.00 | 55 | 1005.8 |
| 20260502201532 | 52 | 270 | 4.0 | 8.0 | 0.00 | 0.00 | 0.00 | 59 | 1006.1 |
| 20260502200531 | 48 | 293 | 3.0 | 8.0 | 0.00 | 0.00 | 0.00 | 67 | 1006.2 |
| 20260502195530 | 48 | 270 | 1.0 | 3.0 | 0.00 | 0.00 | 0.00 | 69 | 1006.0 |
| 20260502194530 | 48 | 0.0 | 0.0 | 0.00 | 0.00 | 0.00 | 66 | 1006.0 | |
| 20260502193530 | 49 | 0.0 | 0.0 | 0.00 | 0.00 | 0.00 | 65 | 1006.1 | |
| 20260502192530 | 50 | 0.0 | 0.0 | 0.00 | 0.00 | 0.00 | 64 | 1006.1 | |
| 20260502191550 | 51 | 0.0 | 2.0 | 0.00 | 0.00 | 0.00 | 61 | 1006.0 | |
| 20260502190533 | 52 | 0.0 | 1.0 | 0.00 | 0.00 | 0.00 | 59 | 1006.0 | |
| 20260502185530 | 53 | 270 | 1.0 | 4.0 | 0.00 | 0.00 | 0.00 | 56 | 1006.1 |
| 20260502184530 | 55 | 270 | 1.0 | 3.0 | 0.00 | 0.00 | 0.00 | 52 | 1006.1 |
| 20260502183530 | 56 | 270 | 1.0 | 3.0 | 0.00 | 0.00 | 0.00 | 50 | 1006.0 |
| 20260502182610 | 57 | 270 | 1.0 | 7.0 | 0.00 | 0.00 | 0.00 | 48 | 1005.9 |
| 20260502181530 | 57 | 270 | 1.0 | 7.0 | 0.00 | 0.00 | 0.00 | 47 | 1005.9 |
| 20260502180530 | 58 | 270 | 2.0 | 7.0 | 0.00 | 0.00 | 0.00 | 46 | 1005.8 |
| 20260502163530 | 62 | 270 | 3.0 | 9.0 | 0.00 | 0.00 | 0.00 | 42 | 1005.8 |
| 20260502162529 | 63 | 270 | 4.0 | 12.0 | 0.00 | 0.00 | 0.00 | 40 | 1005.8 |
| 20260502161530 | 63 | 270 | 3.0 | 14.0 | 0.00 | 0.00 | 0.00 | 41 | 1005.8 |
| 20260502160530 | 63 | 270 | 5.0 | 15.0 | 0.00 | 0.00 | 0.00 | 40 | 1005.8 |
| 20260502151529 | 64 | 270 | 6.0 | 13.0 | 0.00 | 0.00 | 0.00 | 39 | 1005.9 |
| 20260502150530 | 64 | 270 | 3.0 | 8.0 | 0.00 | 0.00 | 0.00 | 39 | 1005.7 |
| 20260502130530 | 67 | 315 | 5.0 | 12.0 | 0.00 | 0.00 | 0.00 | 35 | 1005.9 |
| 20260502123550 | 68 | 270 | 2.0 | 9.0 | 0.00 | 0.00 | 0.00 | 35 | 1006.0 |
| 20260502122530 | 68 | 293 | 8.0 | 17.0 | 0.00 | 0.00 | 0.00 | 35 | 1006.1 |
| 20260502121530 | 68 | 293 | 7.0 | 16.0 | 0.00 | 0.00 | 0.00 | 35 | 1006.1 |
| 20260502120530 | 68 | 248 | 6.0 | 15.0 | 0.00 | 0.00 | 0.00 | 35 | 1006.3 |
| 20260502115550 | 68 | 293 | 2.0 | 9.0 | 0.00 | 0.00 | 0.00 | 35 | 1006.4 |
| 20260502113530 | 68 | 248 | 5.0 | 11.0 | 0.00 | 0.00 | 0.00 | 36 | 1006.4 |
| 20260502112531 | 68 | 248 | 5.0 | 12.0 | 0.00 | 0.00 | 0.00 | 35 | 1006.4 |
| 20260502111530 | 68 | 248 | 5.0 | 11.0 | 0.00 | 0.00 | 0.00 | 36 | 1006.6 |
| 20260502110551 | 68 | 270 | 5.0 | 22.0 | 0.00 | 0.00 | 0.00 | 36 | 1006.6 |
| 20260502105531 | 68 | 270 | 4.0 | 10.0 | 0.00 | 0.00 | 0.00 | 35 | 1006.8 |
| 20260502104530 | 68 | 248 | 6.0 | 19.0 | 0.00 | 0.00 | 0.00 | 36 | 1006.8 |
| 20260502103530 | 67 | 270 | 5.0 | 15.0 | 0.00 | 0.00 | 0.00 | 37 | 1006.9 |
| 20260502102529 | 67 | 248 | 4.0 | 14.0 | 0.00 | 0.00 | 0.00 | 37 | 1006.9 |
| 20260502101530 | 67 | 270 | 3.0 | 11.0 | 0.00 | 0.00 | 0.00 | 38 | 1007.0 |
| 20260502100530 | 66 | 225 | 6.0 | 15.0 | 0.00 | 0.00 | 0.00 | 40 | 1006.9 |
| 20260502091530 | 66 | 248 | 6.0 | 13.0 | 0.00 | 0.00 | 0.00 | 42 | 1007.3 |
| 20260502090530 | 66 | 293 | 4.0 | 19.0 | 0.00 | 0.00 | 0.00 | 43 | 1007.4 |
| 20260502071530 | 59 | 225 | 4.0 | 11.0 | 0.00 | 0.00 | 0.00 | 62 | 1008.2 |
| 20260502070550 | 58 | 203 | 3.0 | 14.0 | 0.00 | 0.00 | 0.00 | 65 | 1008.3 |
| 20260502065530 | 57 | 225 | 4.0 | 9.0 | 0.00 | 0.00 | 0.00 | 68 | 1008.2 |
| 20260502064530 | 56 | 180 | 4.0 | 9.0 | 0.00 | 0.00 | 0.00 | 68 | 1008.2 |
| 20260502063530 | 55 | 225 | 3.0 | 10.0 | 0.00 | 0.00 | 0.00 | 72 | 1008.3 |
| 20260502062530 | 54 | 180 | 2.0 | 5.0 | 0.00 | 0.00 | 0.00 | 74 | 1008.5 |
| 20260502061531 | 53 | 180 | 3.0 | 7.0 | 0.00 | 0.00 | 0.00 | 74 | 1008.6 |
| 20260502060532 | 53 | 158 | 5.0 | 9.0 | 0.00 | 0.00 | 0.00 | 74 | 1008.5 |
| 20260502055532 | 52 | 180 | 4.0 | 7.0 | 0.00 | 0.00 | 0.00 | 75 | 1008.6 |
| 20260502054530 | 52 | 180 | 4.0 | 7.0 | 0.00 | 0.00 | 0.00 | 74 | 1008.8 |
| 20260502053530 | 52 | 158 | 2.0 | 9.0 | 0.00 | 0.00 | 0.00 | 74 | 1009.0 |
| 20260502052550 | 51 | 270 | 2.0 | 6.0 | 0.00 | 0.00 | 0.00 | 76 | 1009.1 |
| 20260502051531 | 49 | 0.0 | 3.0 | 0.00 | 0.00 | 0.00 | 76 | 1009.1 | |
| 20260502050530 | 47 | 293 | 2.0 | 6.0 | 0.00 | 0.00 | 0.00 | 73 | 1009.2 |
| 20260502045531 | 45 | 0.0 | 0.0 | 0.00 | 0.00 | 0.00 | 53 | 1009.3 | |
| 20260502044531 | 43 | 0.0 | 0.0 | 0.00 | 0.00 | 0.00 | 45 | 1009.4 | |
| 20260502043550 | 42 | 0.0 | 0.0 | 0.00 | 0.00 | 0.00 | 29 | 1009.6 | |
| 20260502042530 | 41 | 293 | 2.0 | 4.0 | 0.00 | 0.00 | 0.00 | 1 | 1009.8 |
| 20260502041530 | 40 | 0.0 | 0.0 | 0.00 | 0.00 | 0.00 | 1 | 1009.9 | |
| 20260502040530 | 38 | 0.0 | 0.0 | 0.00 | 0.00 | 0.00 | 1 | 1009.9 | |
| 20260502035530 | 37 | 0.0 | 0.0 | 0.00 | 0.00 | 0.00 | 1 | 1009.8 | |
| 20260502034530 | 36 | 0.0 | 0.0 | 0.00 | 0.00 | 0.00 | 2 | 1009.8 | |
| 20260502033530 | 35 | 0.0 | 0.0 | 0.00 | 0.00 | 0.00 | 20 | 1009.6 | |
| 20260502032530 | 34 | 0.0 | 0.0 | 0.00 | 0.00 | 0.00 | 19 | 1009.6 | |
| 20260502031531 | 34 | 0.0 | 0.0 | 0.00 | 0.00 | 0.00 | 26 | 1010.0 | |
| 20260502030530 | 34 | 0.0 | 0.0 | 0.00 | 0.00 | 0.00 | 27 | 1010.1 | |
| 20260502025530 | 33 | 293 | 1.0 | 2.0 | 0.00 | 0.00 | 0.00 | 33 | 1010.2 |
| 20260502024529 | 34 | 0.0 | 0.0 | 0.00 | 0.00 | 0.00 | 33 | 1010.3 | |
| 20260502023530 | 34 | 0.0 | 0.0 | 0.00 | 0.00 | 0.00 | 37 | 1010.5 | |
| 20260502022530 | 34 | 0.0 | 0.0 | 0.00 | 0.00 | 0.00 | 36 | 1010.9 | |
| 20260502021551 | 34 | 0.0 | 0.0 | 0.00 | 0.00 | 0.00 | 46 | 1011.0 | |
| 20260502020610 | 34 | 0.0 | 0.0 | 0.00 | 0.00 | 0.00 | 51 | 1011.0 | |
| 20260502015531 | 35 | 0.0 | 0.0 | 0.00 | 0.00 | 0.00 | 51 | 1011.1 | |
| 20260502014530 | 35 | 0.0 | 0.0 | 0.00 | 0.00 | 0.00 | 41 | 1011.3 | |
| 20260502013530 | 35 | 0.0 | 0.0 | 0.00 | 0.00 | 0.00 | 43 | 1011.4 | |
| 20260502012530 | 35 | 0.0 | 0.0 | 0.00 | 0.00 | 0.00 | 55 | 1011.7 | |
| 20260502011531 | 35 | 0.0 | 0.0 | 0.00 | 0.00 | 0.00 | 61 | 1011.7 | |
| 20260502010530 | 36 | 0.0 | 0.0 | 0.00 | 0.00 | 0.00 | 63 | 1011.9 | |
| 20260502005530 | 36 | 0.0 | 0.0 | 0.00 | 0.00 | 0.00 | 65 | 1012.0 | |
| 20260502004530 | 37 | 0.0 | 0.0 | 0.00 | 0.00 | 0.00 | 60 | 1012.1 | |
| 20260502003530 | 37 | 0.0 | 0.0 | 0.00 | 0.00 | 0.00 | 60 | 1012.0 | |
| 20260502002530 | 37 | 0.0 | 0.0 | 0.00 | 0.00 | 0.00 | 69 | 1012.0 | |
| 20260502001530 | 37 | 0.0 | 0.0 | 0.00 | 0.00 | 0.00 | 68 | 1012.1 | |
| 20260502000530 | 37 | 0.0 | 0.0 | 0.00 | 0.00 | 0.00 | 70 | 1012.2 | |
| 20260501235530 | 38 | 0.0 | 0.0 | 0.00 | 0.00 | 0.00 | 70 | 1012.3 | |
| 20260501234530 | 38 | 0.0 | 0.0 | 0.00 | 0.00 | 0.00 | 73 | 1012.3 | |
| 20260501233530 | 38 | 0.0 | 0.0 | 0.00 | 0.00 | 0.00 | 72 | 1012.4 | |
| 20260501232530 | 38 | 0.0 | 0.0 | 0.00 | 0.00 | 0.00 | 72 | 1012.4 | |
| 20260501231531 | 39 | 0.0 | 0.0 | 0.00 | 0.00 | 0.00 | 76 | 1012.4 | |
| 20260501230530 | 39 | 0.0 | 0.0 | 0.00 | 0.00 | 0.00 | 75 | 1012.5 | |
| 20260501225551 | 40 | 0.0 | 0.0 | 0.00 | 0.00 | 0.00 | 74 | 1012.5 | |
| 20260501224531 | 40 | 0.0 | 0.0 | 0.00 | 0.00 | 0.00 | 76 | 1012.7 | |
| 20260501223531 | 40 | 0.0 | 0.0 | 0.00 | 0.00 | 0.00 | 77 | 1012.6 | |
| 20260501222534 | 41 | 0.0 | 0.0 | 0.00 | 0.00 | 0.00 | 77 | 1012.8 | |
| 20260501221531 | 42 | 0.0 | 0.0 | 0.00 | 0.00 | 0.00 | 78 | 1013.0 | |
| 20260501220530 | 42 | 0.0 | 0.0 | 0.00 | 0.00 | 0.00 | 78 | 1013.1 | |
| 20260501215532 | 43 | 0.0 | 0.0 | 0.00 | 0.00 | 0.00 | 78 | 1013.0 | |
| 20260501214610 | 44 | 0.0 | 0.0 | 0.00 | 0.00 | 0.00 | 78 | 1013.2 | |
| 20260501213531 | 44 | 0.0 | 0.0 | 0.00 | 0.00 | 0.00 | 77 | 1013.2 |